This demonstration page uses our WeatherBlox Daily Observations layout. Learn more.

Left ArrowRight Arrow

Hourly Observations for January 26, 2018

Temp ( °F °C ) Dew Point ( °F °C ) Humidity (%) Winds ( mph kmh ) Pressure ( in mb ) Visibility ( mi km ) Precip ( " mm )
12:15 am 00:15 Clear 36 2 32 undefined 87 87 S 7 11 30.36 1028 10 16 N/A
12:35 am 00:35 Clear 34 1 32 undefined 93 93 S 7 11 30.36 1028 10 16 N/A
12:55 am 00:55 Clear 34 1 32 undefined 93 93 S 8 13 30.36 1028 10 16 N/A
1:15 am 01:15 Clear 34 1 32 undefined 93 93 S 8 13 30.36 1028 10 16 N/A
1:35 am 01:35 Clear 34 1 32 undefined 93 93 S 8 13 30.36 1028 10 16 N/A
1:55 am 01:55 Clear 34 1 32 undefined 93 93 S 7 11 30.36 1028 10 16 N/A
2:15 am 02:15 Clear 34 1 32 undefined 93 93 S 8 13 30.36 1028 10 16 N/A
2:35 am 02:35 Clear 34 1 32 undefined 93 93 S 7 11 30.36 1028 10 16 N/A
2:55 am 02:55 Clear 34 1 32 undefined 93 93 S 7 11 30.36 1028 10 16 N/A
3:15 am 03:15 Clear 34 1 32 undefined 93 93 S 7 11 30.36 1028 10 16 N/A
3:35 am 03:35 Clear 34 1 32 undefined 93 93 S 7 11 30.39 1029 10 16 N/A
3:55 am 03:55 Clear 34 1 30 -1 87 87 S 7 11 30.39 1029 10 16 N/A
4:15 am 04:15 Clear 34 1 30 -1 87 87 S 8 13 30.39 1029 10 16 N/A
4:35 am 04:35 Clear 34 1 30 -1 87 87 S 8 13 30.39 1029 10 16 N/A
4:55 am 04:55 Clear 34 1 30 -1 87 87 S 7 11 30.39 1029 10 16 N/A
5:15 am 05:15 Clear 34 1 30 -1 87 87 S 7 11 30.39 1029 10 16 N/A
5:35 am 05:35 Clear 32 undefined 30 -1 93 93 S 7 11 30.39 1029 10 16 N/A
5:55 am 05:55 Clear 32 undefined 30 -1 93 93 S 7 11 30.39 1029 10 16 N/A
6:15 am 06:15 Clear 32 undefined 30 -1 93 93 S 6 9 30.39 1029 10 16 N/A
6:36 am 06:36 Clear 32 undefined 30 -1 93 93 S 7 11 30.42 1030 10 16 N/A
6:55 am 06:55 Clear 32 undefined 30 -1 93 93 S 8 13 30.42 1030 10 16 N/A
7:15 am 07:15 Clear 32 undefined 30 -1 93 93 S 7 11 30.42 1030 10 16 N/A
7:35 am 07:35 Clear 34 1 30 -1 87 87 S 8 13 30.42 1030 10 16 N/A
7:55 am 07:55 Clear 34 1 30 -1 87 87 S 7 11 30.42 1030 10 16 N/A
8:15 am 08:15 Sunny 34 1 30 -1 87 87 S 8 13 30.42 1030 10 16 N/A
8:35 am 08:35 Sunny 36 2 30 -1 81 81 S 9 15 30.42 1030 10 16 N/A
8:55 am 08:55 Sunny 36 2 30 -1 81 81 S 8 13 30.42 1030 10 16 N/A
9:15 am 09:15 Sunny 36 2 32 undefined 87 87 S 8 13 30.42 1030 10 16 N/A
9:35 am 09:35 Sunny 37 3 32 undefined 81 81 S 9 15 30.42 1030 10 16 N/A
9:55 am 09:55 Sunny 39 4 32 undefined 75 75 S 9 15 30.42 1030 10 16 N/A
10:15 am 10:15 Sunny 39 4 32 undefined 75 75 S 14 22 30.42 1030 10 16 N/A
10:35 am 10:35 Sunny 41 5 34 1 76 76 S 14 22 30.42 1030 10 16 N/A
10:55 am 10:55 Sunny 43 6 34 1 71 71 S 12 19 30.42 1030 10 16 N/A
11:15 am 11:15 Sunny 45 7 34 1 66 66 S 13 20 30.39 1029 10 16 N/A
11:35 am 11:35 Sunny 45 7 36 2 71 71 S 14 22 30.39 1029 10 16 N/A
11:55 am 11:55 Sunny 46 8 36 2 66 66 S 13 20 30.36 1028 10 16 N/A
12:15 pm 12:15 Sunny 46 8 36 2 66 66 S 13 20 30.36 1028 10 16 N/A
12:35 pm 12:35 Sunny 48 9 37 3 66 66 S 13 20 30.33 1027 10 16 N/A
12:55 pm 12:55 Sunny 50 10 37 3 62 62 S 13 20 30.33 1027 10 16 N/A
1:15 pm 13:15 Sunny 50 10 37 3 62 62 SSW 14 22 30.33 1027 10 16 N/A
1:35 pm 13:35 Sunny 52 11 39 4 62 62 SSW 9 15 30.30 1026 10 16 N/A
1:55 pm 13:55 Sunny 54 12 36 2 51 51 S 14 22 30.30 1026 10 16 N/A
2:15 pm 14:15 Sunny 54 12 39 4 58 58 S 14 22 30.27 1025 10 16 N/A
2:35 pm 14:35 Sunny 55 13 36 2 47 47 SSW 13 20 30.27 1025 10 16 N/A
2:55 pm 14:55 Sunny 55 13 36 2 47 47 SSW 15 24 30.27 1025 10 16 N/A
3:15 pm 15:15 Sunny 55 13 34 1 44 44 S 13 20 30.27 1025 10 16 N/A
3:35 pm 15:35 Sunny 57 14 34 1 41 41 S 14 22 30.21 1023 10 16 N/A
3:55 pm 15:55 Sunny 55 13 34 1 44 44 S 16 26 30.24 1024 10 16 N/A
4:15 pm 16:15 Sunny 54 12 37 3 54 54 S 13 20 30.24 1024 10 16 N/A
4:35 pm 16:35 Sunny 54 12 36 2 51 51 S 14 22 30.24 1024 10 16 N/A
4:55 pm 16:55 Sunny 52 11 34 1 50 50 S 14 22 30.24 1024 10 16 N/A
5:15 pm 17:15 Sunny 50 10 34 1 54 54 S 12 19 30.24 1024 10 16 N/A
5:35 pm 17:35 Sunny 50 10 34 1 54 54 S 10 17 30.24 1024 10 16 N/A
5:55 pm 17:55 Sunny 48 9 36 2 62 62 S 9 15 30.24 1024 10 16 N/A
6:15 pm 18:15 Partly Cloudy 48 9 34 1 58 58 S 9 15 30.24 1024 10 16 N/A
6:35 pm 18:35 Partly Cloudy 48 9 34 1 58 58 S 13 20 30.24 1024 10 16 N/A
6:55 pm 18:55 Clear 48 9 34 1 58 58 S 14 22 30.24 1024 10 16 N/A
7:15 pm 19:15 Clear 48 9 34 1 58 58 S 15 24 30.24 1024 10 16 N/A
7:35 pm 19:35 Clear 48 9 34 1 58 58 S 12 19 30.24 1024 10 16 N/A
7:55 pm 19:55 Clear 46 8 34 1 62 62 S 13 20 30.24 1024 10 16 N/A
8:15 pm 20:15 Clear 46 8 34 1 62 62 S 14 22 30.21 1023 10 16 N/A
8:35 pm 20:35 Clear 48 9 32 undefined 54 54 S 15 24 30.21 1023 10 16 N/A
8:55 pm 20:55 Clear 48 9 32 undefined 54 54 S 13 20 30.21 1023 10 16 N/A
9:15 pm 21:15 Clear 46 8 32 undefined 57 57 S 13 20 30.21 1023 10 16 N/A
9:35 pm 21:35 Partly Cloudy 46 8 32 undefined 57 57 S 15 24 30.21 1023 10 16 N/A
9:55 pm 21:55 Partly Cloudy 46 8 32 undefined 57 57 S 13 20 30.21 1023 10 16 N/A
10:15 pm 22:15 Partly Cloudy 46 8 32 undefined 57 57 S 12 19 30.21 1023 10 16 N/A
10:35 pm 22:35 Partly Cloudy 46 8 32 undefined 57 57 S 13 20 30.21 1023 10 16 N/A
10:55 pm 22:55 Partly Cloudy 46 8 32 undefined 57 57 S 15 24 30.21 1023 10 16 N/A
11:15 pm 23:15 Partly Cloudy 46 8 32 undefined 57 57 S 14 22 30.21 1023 10 16 N/A
11:35 pm 23:35 Mostly Cloudy 46 8 32 undefined 57 57 S 13 20 30.21 1023 10 16 N/A
11:55 pm 23:55 Mostly Cloudy 45 7 32 undefined 61 61 S 10 17 30.21 1023 10 16 N/A

Powered by AerisWeather